Location: Aufkirchen
(47.9603°N, 11.3653°E)
Time: 06:59:19
(UTC+01:00)

Transit 2A - Pass Details

Date: 04 December 2020
Orbit: 599 x 960 km, 66.7° (Epoch: 25 January)

Event Time Altitude Azimuth Distance (km) Brightness Sun altitude
Rises 22:16:18 0° 324° (NW) 3,401 - -56.5°
Reaches altitude 10° 22:20:00 10° 347° (NNW) 2,382 - -56.9°
Maximum altitude 22:23:04 15° 22° (NNE) 1,980 - -57.3°
Drops below altitude 10° 22:26:00 10° 57° (ENE) 2,237 - -57.7°
Sets 22:29:17 0° 81° (E) 3,078 - -58.1°
